Timeline UpdatesTrip UpdatesNews PostsPvt Posts♥♥Travel TipsAdmin PostsConv PostsFollowed PostsChat RequestsBlog PostsPNR Posts

Disclaimer
Search
 
 
Wed Oct 22, 2014 01:29:15 ISTHomeTrainsΣChainsAtlasPNRForumGalleryNewsFAQTripsMembersLoginFeedback
No Recent News for this Train
Other Trains in the News **new
Latest...
Monsoon TT Updated W.e.f. 1st July to 30th Sept. 2014
Mon Jun 30, 2014 (04:42PM)
⇐ Return Journey: Train# 16335

16336/Nagercoil - Gandhidham Express

Time-Table HAS CHANGED.
Sep 12 2014 (9:38PM)
Change Departure Station:
Change Arrival Station:
Post a Train Travel TipPost a Train Travel Tip **new
Post a Comment/Question/Picture/VideoPost a Comment/Question/Picture/Video
Pantry/Catering
✓ Pantry Car Avbl
✓ Catering Avbl
RSA - Rake Sharing
06309/06310/16335/16336 has RSA.
Rake/Coach Composition
LOCO-SLR-LD-GEN-S1-S2-S3-S4-S5-S6-PC-S7-S8-SS9-S10-S11-S12-A1-B2-B1-GEN-GEN-SLR; Coach position at Ahmedabad.
Loco
NCJ to SRR RPM/ED WAP4 SRR to GIMB ERS WDM3A
News    PNR    Forum    Time-Table    Availability    Fare Chart    Map    Arr/Dep History    Trips    Gallery    ΣChains    X/O    Timeline    
Travel Time: 42h 37m    49 halts    Distance: 2111 km    Avg Speed: 49 km/hr
Type: Mail/Express
Zone: SR/Southern
Departs @ 14:00 (Avg 12m late)
Platform# 1
  T    
Nagercoil Junction/NCJ 
Arrives @ 08:37 +2 nights (Avg 2h 37m late)
Platform# 1
    T  
Viramgam Junction/VG 

49 halts. 317 intermediate Stations between Nagercoil Junction and Viramgam Junction

Show ALL intermediate Stations  Show Old Time-Table

#TrkCodeStation NameX/OArrivesAvgDepartsAvgHaltPFDay#KmSpeedElevZoneAddress
1/--/NCJNagercoil Junction (4)»  -14:00+12110.05022mSRNagercoil-629002, Tamil Nadu
2/--/TVCTrivandrum Central (5)  15:30 15:25+615:35+65 10m--171.17812mSRThiruvananthapuram 695001, Kerala
3/==/QLNKollam Junction (6)X  16:25+2016:30+195m21135.76116mSRKollam 0474-2746194, Kerala
4/==/KYJKayamkulam Junction (5)X  17:08 17:10+1317:10 17:12+132m--1176.56111mSRAlappuzha Ph;0479-2442042, Kerala
5/==%CNGRChengannur (3)  17:30 17:32+1317:32 17:34+172m31196.7606mSRPh: 0479-2452340, Kerala
6%==%TRVLTiruvalla (2)  17:40 17:43+2017:42 17:44+222 1m21205.84327mSRPh: 0469-2601314, Kerala
7%==%KTYMKottayam (3)X  18:20+2918:25+345m11231.53815mSRTel: 0481 2563535, Kerala
8/==/ERNErnakulam Town (North) (2)X  20:00+2620:05+265m11291.4569mSRTel: 0484 2395198, Kerala
9/==/AWYAluva (3)  20:23+2920:25+302m31308.36112mSRPh: 0484-2624141, Kerala
10/==/TCRThrissur (4)  21:19+3221:22+313m21362.9346mSRThrissur Tel: 0487 2423150, Kerala
11/==/SRRShoranur Junction (7)  22:20+1822:30+3010m--1395.85026mSRShoranur ph.no 0466-2222913, Kerala
12%==%PTBPattambi (2)  22:43 22:44+3122:45+312 1m--1407.45821mSRPattambi, Kerala
13%==%KTUKuttippuram (2)X  23:03 23:04+3223:05+332 1m--1425.85017mSRKuttippuram, Kerala
14%==%TIRTirur (3)  23:23+3023:25+292m--1440.9699mSRTel: 0494 2422240, Kerala
15%==%PGIParappangadi (2)X  23:38 23:39+3123:40+322 1m--1457.06519mSRParappanangadi, Kerala
16%==%FKFerok (2)  23:53 23:54+3423:55+342 1m--1472.22419mSRFeroke, Kerala
17%==%CLTKozhikode Main (4)  00:20+2500:25+265m42482.16111mSRCalicut Tel: 0495 2701234, Kerala
18%==%QLDKoyilandy (3)  00:48 00:49+2600:50+262 1m--2506.57711mSRQuilandi, Kerala
19%==%BDJVadakara (2)  01:07+2701:09+262m22528.47011mSRCalicut / Station Ph No : 0496-2524254, Kerala
20%==%TLYThalassery (2)  01:28+2901:30+292m--2550.5419mSRKannur, Kerala
21%==%CANKannur Main (4)  02:00+2302:05+265m12571.26714mSRKannur Tel: 0497 2705555, Kerala
22%==%KPQKannapuram (2)  02:18+2802:20+272m12585.7649mSRKannur District, Kerala
23%==%PAYPayyanur (3)  02:38+2502:40+242m--2604.8540mSRKannur District, Kerala
24%==%KGQKasaragod (3)  03:38+1403:40+142m--2657.24218mSRTel: 04994 220800, Kerala
25%==%MAJNMangalore Junction (3)X  04:50-105:00+510m32706.33124mSRMangalore 575001, Karnataka
26|--|SLSurathkal (1)  05:40+505:42+102m12726.87022mKRSurathkal, Karnataka
27|--|UDUdupi (2)  06:18+1206:20+232m--2768.78018mKRUdupi, Karnataka
28|--|KUDAKundapura (2)X  06:44+2806:46+282m12800.75313mKRKundapura - 576211, Karnataka
29|--|BYNRByndoor Mookambika Road (1)X  07:24-07:26-2m12834.34510mKRUdupi Dist. 576214, Karnataka
30|--|MRDWMurdeshwar (2)  08:06+1:2708:08+1:292m--2864.16328mKRMurudeshwara - 581350, Karnataka
31|--|KTKumta (2)X  08:46+4708:48+492m--2904.24520mKRKumta - 581362, Karnataka
32|--|KAWRKarwar (2)  10:02+1:2610:04+1:292m--2959.34514mKRKarwar, Karnataka
33|--|CNOCanacona (1)  10:40+1:1910:42+1:192m12986.44329mKRPh:-0832-2643644., Goa
34|--|MAOMadgaon Junction (3)  11:30+1:1211:40+1:1510m221020.65011mKRMadgaon 403601, Goa
35|--|SWVSawantwadi Road (2)X  13:10+1:3413:12+1:552m121094.96540mKRDist. Sindhudurg, Maharashtra
36|--|RNRatnagiri (3)X  15:40+1:4915:45+1:545m221255.459129mKRRatnagiri 415612, Maharashtra
37|--|CHIChiplun (2)X  17:02+1:1317:04+1:322m121330.84812mKRChiplun, Maharashtra
38|==|PNVLPanvel Junction (7)  21:20+1:2021:25+1:285m721534.54110mCRPanvel, Maharashtra
39/==/BIRDBhiwandi Road (4)  22:23+1:3222:25+1:322m421572.33626mCRBhiwandi, Maharashtra
40/==/BSRVasai Road (7)  23:10+1:2223:15+1:235m621599.6607mWRVasai 401202, Maharashtra
41/==/BORBoisar (3)00:06+1:2900:08+1:302m--31650.48417mWRBoisar Tel.no-02525-266626, Maharashtra
42/==/VAPIVapi (3)X  00:58+1:3401:00+1:372m--31720.75627mWRVapi, Gujarat
43/==/BLValsad (3)X  01:28+1:3201:30+1:342m131746.94115mWRValsad, Gujarat
44/==/STSurat (4)O  03:10+1:5803:22+1:5812m231815.67519mWRSurat 395001, Gujarat
45/==/AKVAnkleshwar Junction (4)X  04:02+1:1204:04+1:122m131865.67019mWRAnkleshwar, Gujarat
46/==/BRCVadodara Junction (7)X  05:20 05:12+1:1105:22+1:212 10m231945.46736mWRVadodara 390005, Gujarat
47/==/ANNDAnand Junction (6)X  05:54+1:2405:56+1:242m231981.27444mWRAnand, Gujarat
48/==/NDNadiad Junction (4)XO  06:11+206:13+22m231999.75937mWRNadiad, Gujarat
49/==/MANManinagar (2)  06:56+9:2606:58+9:262m132042.01150mWRAhmadabad, Gujarat
50/==/ADIAhmedabad Junction (12)  07:15+2:1807:35+2:1520m132045.26351mWRAhmedabad, Gujarat
51|==|VGViramgam Junction (5)•  08:37+2:3708:39+2:372m132110.65529mWRViramgam, Gujarat
52!==!DHGDhrangadhra Junction (3)  09:50+1:4109:52+1:422m--32175.37454mWRDhrangadhra, Gujarat
53!==!MALBMaliya Miyana Junction (2)  10:54+2:1310:56+2:152m--32252.2496mWRMalia, Gujarat
54!==!SIOBSamakhiali Junction (3)  11:44+2:0811:46+2:082m132291.46042mWRSamakhiali, Gujarat
55|==|BCOBBhachau (3)  12:02+2:0712:04+2:062m132307.33044mWRBhachau, Gujarat
56|==|GIMBGandhidham Junction (3)  13:20+1:57-332345.1-12mWRGandhidham, Gujarat
Scroll to Top
Scroll to Bottom